Marion, VA

2:56 PM EDT on April 24, 2018 (GMT -0400)
Mountain Empire

Weather History for KMKJ - February, 2014

Change the Weather History Date:

Saturday, February 1, 2014

  Actual Average (KBLF) Record (KBLF)
Temperature  
Mean Temperature 45 °F -  
Max Temperature 63 °F 43 °F 71 °F (1990)
Min Temperature 27 °F 25 °F -2 °F (1971)
Degree Days  
Heating Degree Days 20    
Moisture  
Dew Point 22 °F    
Average Humidity 52    
Maximum Humidity 78    
Minimum Humidity 18    
Precipitation  
Precipitation 0.00 in - - ()
Sea Level Pressure  
Sea Level Pressure 30.12 in    
Wind  
Wind Speed 3 mph (East)    
Max Wind Speed 12 mph    
Max Gust Speed -    
Visibility 10 miles    
Events      
Averages and records for this station are not official NWS values.
T = Trace of Precipitation, MM = Missing Value Source: NWS Daily Summary

Daily Weather History Graph

Daily Weather History Graph

Search for Another Location

Airport or City:

Astronomy

Feb. 01, 2014 Rise Set
Actual Time 7:27 AM EST 5:50 PM EST
Civil Twilight 7:00 AM EST 6:18 PM EST
Nautical Twilight 6:29 AM EST 6:49 PM EST
Astronomical Twilight 5:58 AM EST 7:19 PM EST
Moon 8:20 AM EST (2/1) 8:19 PM EST (2/1)
Length of Visible Light 11h 17m
Length of Day
10h 23m
Waxing Crescent, 5% of the Moon is Illuminated
Feb 1
Waxing Crescent
Feb 6
First Quarter
Feb 14
Full
Feb 22
Last Quarter
Mar 1
New

Hourly Weather History & Observations

Time (EST) Temp. Windchill Dew Point Humidity Pressure Visibility Wind Dir Wind Speed Gust Speed Precip Events Conditions
12:15 AM 30.2 °F - 19.6 °F 65% 30.16 in 10.0 mi Calm Calm - N/A   Clear
12:35 AM 30.2 °F - 19.9 °F 66% 30.16 in 10.0 mi Calm Calm - N/A   Clear
12:55 AM 28.2 °F - 20.7 °F 73% 30.16 in 10.0 mi Calm Calm - N/A   Clear
1:15 AM 29.1 °F - 21.2 °F 72% 30.16 in 10.0 mi Calm Calm - N/A   Clear
1:35 AM 28.2 °F - 21.6 °F 76% 30.16 in 10.0 mi Calm Calm - N/A   Clear
1:55 AM 28.4 °F - 21.2 °F 74% 30.16 in 10.0 mi Calm Calm - N/A   Clear
2:15 AM 28.2 °F - 22.1 °F 78% 30.16 in 10.0 mi Calm Calm - N/A   Clear
2:35 AM 27.7 °F - 20.7 °F 75% 30.16 in 10.0 mi Calm Calm - N/A   Clear
2:55 AM 28.0 °F - 20.1 °F 72% 30.15 in 10.0 mi Calm Calm - N/A   Clear
3:15 AM 27.7 °F 23.8 °F 20.1 °F 73% 30.15 in 10.0 mi ENE 3.5 mph - N/A   Clear
3:35 AM 28.0 °F - 20.1 °F 72% 30.14 in 10.0 mi Calm Calm - N/A   Clear
3:55 AM 27.9 °F 24.0 °F 20.1 °F 73% 30.14 in 10.0 mi East 3.5 mph - N/A   Clear
4:15 AM 28.6 °F - 20.3 °F 71% 30.15 in 10.0 mi Calm Calm - N/A   Clear
4:35 AM 27.7 °F - 20.1 °F 73% 30.15 in 10.0 mi Calm Calm - N/A   Clear
4:55 AM 28.2 °F - 20.3 °F 72% 30.16 in 10.0 mi Calm Calm - N/A   Clear
5:15 AM 27.5 °F - 20.8 °F 76% 30.16 in 10.0 mi Calm Calm - N/A   Clear
5:35 AM 27.0 °F 23.0 °F 21.0 °F 78% 30.17 in 10.0 mi East 3.5 mph - N/A   Clear
5:55 AM 28.0 °F 24.2 °F 20.8 °F 74% 30.18 in 10.0 mi East 3.5 mph - N/A   Clear
6:15 AM 27.5 °F 22.2 °F 20.3 °F 74% 30.18 in 10.0 mi East 4.6 mph - N/A   Clear
6:35 AM 27.9 °F 24.0 °F 21.0 °F 75% 30.19 in 10.0 mi East 3.5 mph - N/A   Clear
6:55 AM 27.3 °F 23.4 °F 20.3 °F 75% 30.19 in 10.0 mi East 3.5 mph - N/A   Clear
7:15 AM 27.3 °F - 20.8 °F 77% 30.19 in 10.0 mi Calm Calm - N/A   Clear
7:35 AM 27.7 °F 23.8 °F 20.7 °F 75% 30.19 in 10.0 mi ESE 3.5 mph - N/A   Clear
7:55 AM 29.7 °F 24.7 °F 21.4 °F 71% 30.19 in 10.0 mi East 4.6 mph - N/A   Clear
8:15 AM 29.8 °F - 21.6 °F 71% 30.19 in 10.0 mi Calm Calm - N/A   Clear
8:35 AM 32.0 °F 28.7 °F 22.6 °F 68% 30.20 in 10.0 mi ESE 3.5 mph - N/A   Clear
8:55 AM 33.4 °F 30.4 °F 23.0 °F 66% 30.20 in 10.0 mi East 3.5 mph - N/A   Clear
9:15 AM 36.3 °F 30.8 °F 21.7 °F 56% 30.20 in 10.0 mi East 6.9 mph - N/A   Clear
9:35 AM 38.1 °F 32.9 °F 22.1 °F 53% 30.20 in 10.0 mi East 6.9 mph - N/A   Clear
9:55 AM 39.4 °F 35.2 °F 22.6 °F 51% 30.20 in 10.0 mi East 5.8 mph - N/A   Clear
10:15 AM 40.6 °F 36.7 °F 21.6 °F 47% 30.19 in 10.0 mi East 5.8 mph - N/A   Clear
10:35 AM 42.1 °F 37.7 °F 22.5 °F 46% 30.19 in 10.0 mi East 6.9 mph - N/A   Clear
10:55 AM 43.5 °F 38.3 °F 23.4 °F 45% 30.18 in 10.0 mi ENE 9.2 mph - N/A   Clear
11:15 AM 45.1 °F 40.3 °F 22.3 °F 40% 30.16 in 10.0 mi ENE 9.2 mph - N/A   Clear
11:35 AM 46.9 °F - 21.7 °F 37% 30.16 in 10.0 mi NE 8.1 mph - N/A   Clear
11:55 AM 48.9 °F - 22.5 °F 35% 30.14 in 10.0 mi NE 9.2 mph - N/A   Clear
12:15 PM 50.4 °F - 22.3 °F 33% 30.12 in 10.0 mi ENE 11.5 mph - N/A   Clear
12:35 PM 51.3 °F - 21.7 °F 31% 30.11 in 10.0 mi ENE 9.2 mph - N/A   Clear
12:55 PM 53.4 °F - 22.1 °F 30% 30.09 in 10.0 mi ENE 10.4 mph - N/A   Clear
1:15 PM 55.2 °F - 21.0 °F 26% 30.08 in 10.0 mi ENE 9.2 mph - N/A   Clear
1:35 PM 57.6 °F - 20.5 °F 24% 30.07 in 10.0 mi East 8.1 mph - N/A   Clear
1:55 PM 59.0 °F - 21.6 °F 24% 30.06 in 10.0 mi NE 5.8 mph - N/A   Clear
2:15 PM 60.3 °F - 21.0 °F 22% 30.06 in 10.0 mi NNE 6.9 mph - N/A   Clear
2:35 PM 61.2 °F - 21.4 °F 22% 30.06 in 10.0 mi North 5.8 mph - N/A   Clear
2:55 PM 63.5 °F - 19.0 °F 18% 30.05 in 10.0 mi SE 8.1 mph - N/A   Clear
3:15 PM 63.5 °F - 20.3 °F 19% 30.05 in 10.0 mi South 4.6 mph - N/A   Clear
3:35 PM 63.7 °F - 20.5 °F 19% 30.05 in 10.0 mi South 5.8 mph - N/A   Clear
3:55 PM 63.1 °F - 22.1 °F 21% 30.04 in 10.0 mi ESE 5.8 mph - N/A   Clear
4:15 PM 62.8 °F - 24.4 °F 23% 30.04 in 10.0 mi East 4.6 mph - N/A   Clear
4:35 PM 61.0 °F - 23.9 °F 24% 30.05 in 10.0 mi SE 4.6 mph - N/A   Clear
4:55 PM 58.5 °F - 22.3 °F 25% 30.05 in 10.0 mi ESE 5.8 mph - N/A   Clear
5:15 PM 57.6 °F - 20.8 °F 24% 30.05 in 10.0 mi ESE 3.5 mph - N/A   Clear
5:35 PM 56.1 °F - 19.8 °F 24% 30.05 in 10.0 mi East 4.6 mph - N/A   Clear
5:55 PM 52.5 °F - 21.0 °F 29% 30.05 in 10.0 mi ENE 3.5 mph - N/A   Clear
6:15 PM 51.6 °F - 21.0 °F 30% 30.06 in 10.0 mi NE 3.5 mph - N/A   Clear
6:35 PM 50.4 °F - 21.4 °F 32% 30.06 in 10.0 mi NE 3.5 mph - N/A   Clear
6:55 PM 49.1 °F - 21.4 °F 34% 30.06 in 10.0 mi NE 4.6 mph - N/A   Clear
7:15 PM 46.8 °F - 22.6 °F 39% 30.07 in 10.0 mi NE 3.5 mph - N/A   Clear
7:35 PM 46.2 °F 44.1 °F 22.5 °F 39% 30.07 in 10.0 mi ENE 4.6 mph - N/A   Clear
7:55 PM 45.7 °F 44.4 °F 22.1 °F 39% 30.08 in 10.0 mi ENE 3.5 mph - N/A   Clear
8:15 PM 45.3 °F - 21.9 °F 40% 30.08 in 10.0 mi Calm Calm - N/A   Clear
8:35 PM 45.0 °F - 20.8 °F 38% 30.08 in 10.0 mi Calm Calm - N/A   Clear
8:55 PM 42.6 °F - 22.6 °F 45% 30.08 in 10.0 mi Calm Calm - N/A   Clear
9:15 PM 40.8 °F - 24.4 °F 52% 30.08 in 10.0 mi Calm Calm - N/A   Clear
9:35 PM 39.7 °F - 24.6 °F 55% 30.09 in 10.0 mi Calm Calm - N/A   Clear
9:55 PM 38.8 °F - 25.2 °F 58% 30.09 in 10.0 mi Calm Calm - N/A   Clear
10:15 PM 37.9 °F - 26.1 °F 62% 30.08 in 10.0 mi Calm Calm - N/A   Clear
10:35 PM 37.2 °F - 26.1 °F 64% 30.08 in 10.0 mi Calm Calm - N/A   Clear
10:55 PM 37.4 °F - 25.9 °F 63% 30.08 in 10.0 mi Calm Calm - N/A   Clear
11:15 PM 37.0 °F - 26.2 °F 65% 30.08 in 10.0 mi Calm Calm - N/A   Clear
11:35 PM 34.7 °F - 26.6 °F 72% 30.07 in 10.0 mi Calm Calm - N/A   Clear
11:55 PM 34.5 °F - 26.6 °F 73% 30.07 in 10.0 mi Calm Calm - N/A   Clear